Simultaneous Nadir Overpasses (SNOs) Predictions

Prediction of SNOs between GOES-16 and NOAA-20 Satellite Orbit:

Table of predicted SNOs for the next 14.0 days since TLE Epoch: 2/15/2019
Index Date Time (GOES-16) GOES-16 Lat,Lon NOAA-20 Lat,Lon Distance(km) Time Diff (sec)
1 02/16/2019 06:32:38 -0.01, -75.20 0.26, -76.48 145.38 80
2 02/17/2019 06:11:13 -0.00, -75.20 -0.73, -71.94 371.02 80
3 02/18/2019 18:33:10 -0.00, -75.20 -0.44, -77.25 233.34 80
4 02/19/2019 18:17:06 -0.00, -75.20 0.55, -72.71 283.40 80
5 02/21/2019 06:38:55 0.00, -75.21 0.60, -77.99 315.81 80
6 02/22/2019 06:17:31 -0.00, -75.22 -0.39, -73.45 201.28 80
7 02/23/2019 18:39:28 0.00, -75.23 -0.78, -78.76 401.92 80
8 02/24/2019 18:23:24 0.00, -75.24 0.21, -74.22 115.73 80
9 02/26/2019 06:45:13 0.00, -75.27 0.93, -79.50 482.00 80
10 02/27/2019 06:23:48 0.00, -75.28 -0.06, -74.96 35.86 80
11 03/01/2019 18:27:01 -0.00, -75.32 -0.11, -75.74 48.29 80




NCC Satellite Simultaneous Nadir Overpasses (SNOs) Prediction Service
